Home   Weather   Ulyanovsk   Past weeks

Flag for Russia Past Weather in Ulyanovsk, Russia — Yesterday and Last 2 Weeks

Now
50 °F

Fog.


Feels Like: 49 °F
Forecast: 48 / 59 °F
Wind: 3 mph from Northwest

Location: Ulyanovsk Vostochny Airport

Current Time: Sep 30, 2016 at 7:16:52 AM

Latest Report: Sep 30, 2016 at 6:00 AM


Visibility: 3 mi

Pressure: 29.95 "Hg

Humidity: 88%

Dew Point: 46 °F

Location of UlyanovskLocation

Past Weather in Ulyanovsk — Graph

°F

Ulyanovsk Temperature Yesterday

Maximum temperature yesterday: 57 °F (at 2:00 PM)
Minimum temperature yesterday: 50 °F (at 12:00 AM)
Average temperature yesterday: 52 °F

High & Low Weather Summary for the Past Weeks

 TemperatureHumidityPressure
High70 °F (Sep 25, 1:00 PM)100% (Sep 15, 9:00 PM)30.15 "Hg (Sep 15, 9:00 PM)
Low37 °F (Sep 21, 1:00 AM)43% (Sep 25, 4:00 PM)29.62 "Hg (Sep 15, 9:00 AM)
Average51 °F86%29.85 "Hg
* Reported Sep 15 6:00 AM — Sep 30 6:00 AM, Ulyanovsk, Weather by CustomWeather, © 2016

Note: Actual official high and low records may vary slightly from our data, if they occured in-between our weather recording intervals... More about our weather records

Advertising

Ulyanovsk Weather History for the Previous 24 Hours

Scroll right to see more
 ConditionsComfort  
Time TempWeatherWind HumidityBarometerVisibility
6:00 AM
Fri, Sep 30
50 °FFog.3 mph88%29.95 "Hg3 mi
5:00 AM50 °FFog.3 mph88%29.92 "Hg3 mi
4:00 AM50 °FFog.6 mph88%29.92 "Hg3 mi
3:00 AM50 °FFog.8 mph94%29.92 "Hg3 mi
2:00 AM50 °FFog.6 mph94%29.89 "Hg3 mi
1:00 AM52 °FFog.8 mph88%29.89 "Hg3 mi
12:00 AM52 °FFog.8 mph88%29.89 "Hg3 mi
11:00 PM
Thu, Sep 29
52 °FFog.8 mph88%29.89 "Hg3 mi
10:00 PM52 °FFog.13 mph94%29.89 "Hg3 mi
9:00 PM52 °FFog.13 mph94%29.86 "Hg3 mi
8:00 PM54 °FPassing clouds.13 mph88%29.86 "Hg5 mi
7:00 PM52 °FScattered clouds.6 mph88%29.83 "Hg5 mi
6:00 PM54 °FScattered clouds.6 mph82%29.83 "Hg5 mi
5:00 PM55 °FScattered clouds.6 mph77%29.80 "Hg5 mi
4:00 PM57 °FScattered clouds.6 mph72%29.80 "Hg5 mi
3:00 PM57 °FScattered clouds.6 mph72%29.80 "Hg5 mi
2:00 PM57 °FScattered clouds.6 mph72%29.80 "Hg5 mi
1:00 PM54 °FPartly sunny.8 mph82%29.83 "Hg5 mi
12:00 PM54 °FMostly cloudy.6 mph82%29.83 "Hg5 mi
11:00 AM54 °FPartly sunny.8 mph82%29.80 "Hg5 mi
10:00 AM54 °FPartly sunny.8 mph88%29.80 "Hg5 mi
9:00 AM52 °FPartly sunny.6 mph88%29.83 "Hg5 mi
8:00 AM50 °FLow clouds.8 mph94%29.83 "Hg5 mi
7:00 AM50 °FLow clouds.6 mph94%29.80 "Hg5 mi
Weather by CustomWeather, © 2016

See weather overviewHow to use our weather pages